Change the Weather History Date:

Monday, May 12, 2014

  Actual Average Record
Temperature  
Mean Temperature 61 °F -  
Max Temperature 68 °F 66 °F 83 °F (1991)
Min Temperature 54 °F 41 °F 25 °F (1967)
Degree Days  
Heating Degree Days 4    
Growing Degree Days 11 (Base 50)    
Moisture  
Dew Point 58 °F    
Average Humidity 93    
Maximum Humidity 99    
Minimum Humidity 78    
Precipitation  
Precipitation 1.05 in - - ()
Sea Level Pressure  
Sea Level Pressure 29.79 in    
Wind  
Wind Speed 9 mph (ESE)    
Max Wind Speed 15 mph    
Max Gust Speed 23 mph    
Visibility 6 miles    
Events Rain , Thunderstorm    
Averages and records for this station are not official NWS values.
T = Trace of Precipitation, MM = Missing Value Source: NWS Daily Summary

Daily Weather History Graph

Daily Weather History Graph

Search for Another Location

Airport or City:

Trip Planner

Search our weather history database for the weather conditions in past years. The results will help you decide how hot, cold, wet, or windy it might be!

Date:

Astronomy

May. 12, 2014 Rise Set
Actual Time 5:35 AM CDT 8:20 PM CDT
Civil Twilight 5:01 AM CDT 8:54 PM CDT
Nautical Twilight 4:18 AM CDT 9:37 PM CDT
Astronomical Twilight 3:28 AM CDT 10:27 PM CDT
Moon 6:12 PM CDT (5/12) 4:21 AM CDT (5/12)
Length of Visible Light 15h 53m
Length of Day
14h 45m
Waxing Gibbous, 95% of the Moon is Illuminated
May 12
Waxing Gibbous
May 14
Full
May 21
Last Quarter
May 28
New
Jun 5
First Quarter

Hourly Weather History & Observations

Time (CDT) Temp. Dew Point Humidity Pressure Visibility Wind Dir Wind Speed Gust Speed Precip Events Conditions
12:15 AM 59.0 °F 55.6 °F 88% 29.87 in 10.0 mi ESE 10.4 mph - N/A Rain Light Rain
12:35 AM 58.6 °F 55.9 °F 91% 29.89 in 7.0 mi SSE 8.1 mph - 0.02 in Rain , Thunderstorm Rain
12:55 AM 58.1 °F 56.5 °F 94% 29.88 in 5.0 mi ESE 6.9 mph - 0.10 in Rain , Thunderstorm Thunderstorms and Rain
1:15 AM 58.1 °F 56.5 °F 94% 29.87 in 7.0 mi East 5.8 mph - 0.01 in Rain , Thunderstorm Thunderstorms and Rain
1:35 AM 58.1 °F 56.3 °F 94% 29.86 in 7.0 mi East 6.9 mph - 0.03 in Rain , Thunderstorm Light Thunderstorms and Rain
1:55 AM 57.6 °F 56.5 °F 96% 29.85 in 3.0 mi ENE 5.8 mph 10.4 mph 0.18 in Rain , Thunderstorm Heavy Thunderstorms and Rain
2:15 AM 57.2 °F 56.3 °F 97% 29.86 in 4.0 mi NE 8.1 mph - 0.05 in Rain , Thunderstorm Heavy Thunderstorms and Rain
2:35 AM 56.7 °F 55.9 °F 97% 29.84 in 3.0 mi ENE 9.2 mph - 0.13 in Rain , Thunderstorm Heavy Thunderstorms and Rain
2:55 AM 56.5 °F 55.8 °F 97% 29.88 in 3.0 mi ESE 5.8 mph - 0.22 in Rain , Thunderstorm Heavy Thunderstorms and Rain
3:15 AM 56.5 °F 55.9 °F 98% 29.85 in 3.0 mi East 9.2 mph - 0.11 in Rain , Thunderstorm Heavy Thunderstorms and Rain
3:35 AM 56.5 °F 55.9 °F 98% 29.83 in 4.0 mi East 11.5 mph - 0.23 in Rain Rain
3:55 AM 56.7 °F 55.8 °F 97% 29.83 in 3.0 mi East 10.4 mph 16.1 mph 0.39 in Rain Heavy Rain
4:15 AM 56.5 °F 55.4 °F 96% 29.81 in 5.0 mi East 12.7 mph - 0.10 in Rain Rain
4:35 AM 55.9 °F 55.0 °F 97% 29.81 in 7.0 mi ESE 11.5 mph 16.1 mph 0.12 in Rain Light Rain
4:55 AM 55.6 °F 54.7 °F 97% 29.79 in 5.0 mi East 13.8 mph - 0.14 in Rain Rain
5:35 AM 55.0 °F 54.1 °F 97% 29.77 in 10.0 mi East 10.4 mph 19.6 mph 0.01 in   Overcast
5:55 AM 54.7 °F 54.0 °F 97% 29.76 in 7.0 mi ESE 8.1 mph - 0.01 in   Overcast
6:15 AM 54.7 °F 54.0 °F 97% 29.77 in 5.0 mi SE 5.8 mph - N/A   Overcast
6:35 AM 54.7 °F 54.0 °F 97% 29.78 in 4.0 mi SE 5.8 mph - N/A   Overcast
6:55 AM 54.7 °F 54.0 °F 97% 29.78 in 4.0 mi SE 5.8 mph - N/A   Overcast
7:15 AM 54.5 °F 54.0 °F 98% 29.78 in 2.5 mi ESE 8.1 mph - N/A   Overcast
7:35 AM 54.7 °F 54.3 °F 99% 29.78 in 2.5 mi SE 4.6 mph - N/A   Overcast
7:55 AM 55.2 °F 54.5 °F 97% 29.78 in 2.5 mi ESE 8.1 mph - N/A   Overcast
8:15 AM 55.8 °F 55.2 °F 98% 29.78 in 3.0 mi SE 6.9 mph - N/A   Overcast
8:35 AM 55.9 °F 55.4 °F 98% 29.80 in 3.0 mi SE 9.2 mph 16.1 mph N/A   Overcast
8:55 AM 56.3 °F 55.6 °F 97% 29.81 in 4.0 mi SSE 12.7 mph 18.4 mph N/A   Overcast
9:15 AM 56.7 °F 55.9 °F 97% 29.79 in 4.0 mi SE 10.4 mph 16.1 mph N/A   Overcast
9:35 AM 57.2 °F 56.3 °F 97% 29.81 in 5.0 mi SE 9.2 mph - N/A   Overcast
9:55 AM 57.6 °F 56.5 °F 96% 29.83 in 5.0 mi SSE 15.0 mph 18.4 mph N/A   Overcast
10:15 AM 57.4 °F 56.5 °F 97% 29.85 in 5.0 mi SSE 10.4 mph - N/A   Overcast
10:35 AM 57.6 °F 56.8 °F 97% 29.85 in 5.0 mi SSE 8.1 mph - N/A   Overcast
10:55 AM 57.7 °F 57.2 °F 98% 29.85 in 3.0 mi SSE 9.2 mph - N/A Rain Light Rain
11:15 AM 57.7 °F 57.2 °F 98% 29.84 in 2.5 mi SE 9.2 mph - N/A   Drizzle
11:35 AM 59.0 °F 58.3 °F 97% 29.81 in 4.0 mi SE 8.1 mph - N/A Rain Rain
11:55 AM 59.4 °F 58.5 °F 97% 29.80 in 5.0 mi SE 6.9 mph - 0.01 in   Light Drizzle
12:15 PM 60.4 °F 59.2 °F 96% 29.80 in 10.0 mi SE 6.9 mph - N/A   Mostly Cloudy
12:35 PM 61.5 °F 59.0 °F 91% 29.81 in 10.0 mi SSW 3.5 mph - N/A   Scattered Clouds
12:55 PM 62.1 °F 59.0 °F 90% 29.81 in 10.0 mi SSE 6.9 mph - N/A   Mostly Cloudy
1:15 PM 63.0 °F 59.4 °F 88% 29.79 in 10.0 mi SSE 9.2 mph - N/A   Mostly Cloudy
1:35 PM 64.4 °F 60.1 °F 86% 29.78 in 10.0 mi SSE 6.9 mph - N/A   Overcast
1:55 PM 65.3 °F 60.3 °F 84% 29.77 in 10.0 mi SSE 8.1 mph - N/A   Overcast
2:35 PM 67.3 °F 61.2 °F 81% 29.78 in 10.0 mi SSE 10.4 mph - N/A   Scattered Clouds
2:55 PM 68.0 °F 61.0 °F 78% 29.78 in 10.0 mi SSE 12.7 mph - N/A   Mostly Cloudy
3:15 PM 66.4 °F 60.3 °F 81% 29.79 in 10.0 mi SSE 10.4 mph - N/A   Mostly Cloudy
3:35 PM 67.8 °F 60.6 °F 78% 29.79 in 10.0 mi SSE 10.4 mph - N/A   Overcast
3:55 PM 66.7 °F 60.4 °F 80% 29.79 in 10.0 mi SE 9.2 mph - N/A   Overcast
4:15 PM 68.4 °F 61.2 °F 78% 29.79 in 10.0 mi SSE 11.5 mph - N/A   Overcast
4:35 PM 67.3 °F 60.8 °F 80% 29.79 in 10.0 mi SE 10.4 mph 17.3 mph N/A   Overcast
4:55 PM 66.6 °F 60.3 °F 80% 29.79 in 10.0 mi SSE 11.5 mph 16.1 mph N/A   Overcast
5:15 PM 66.0 °F 60.3 °F 82% 29.78 in 10.0 mi ESE 8.1 mph - N/A   Overcast
5:35 PM 66.2 °F 60.3 °F 81% 29.77 in 10.0 mi ESE 5.8 mph - N/A   Overcast
5:55 PM 65.8 °F 60.4 °F 83% 29.77 in 10.0 mi ESE 5.8 mph - N/A   Overcast
6:15 PM 65.7 °F 60.4 °F 83% 29.77 in 10.0 mi ESE 3.5 mph - N/A   Overcast
6:35 PM 65.3 °F 60.6 °F 85% 29.77 in 10.0 mi ESE 5.8 mph - N/A   Mostly Cloudy
6:55 PM 65.3 °F 60.8 °F 85% 29.76 in 10.0 mi East 5.8 mph - N/A   Scattered Clouds
7:15 PM 64.4 °F 60.8 °F 88% 29.75 in 10.0 mi East 8.1 mph - N/A   Mostly Cloudy
7:35 PM 63.5 °F 60.4 °F 90% 29.75 in 10.0 mi East 8.1 mph - N/A   Scattered Clouds
7:55 PM 62.6 °F 60.3 °F 92% 29.75 in 10.0 mi East 8.1 mph - N/A   Scattered Clouds
8:15 PM 61.9 °F 60.3 °F 94% 29.74 in 5.0 mi East 9.2 mph - N/A   Mostly Cloudy
8:35 PM 61.7 °F 60.3 °F 95% 29.72 in 4.0 mi East 9.2 mph - N/A   Mostly Cloudy
8:55 PM 61.2 °F 60.3 °F 97% 29.74 in 4.0 mi ESE 8.1 mph 16.1 mph N/A   Overcast
9:15 PM 61.0 °F 60.3 °F 97% 29.74 in 3.0 mi ESE 10.4 mph - N/A   Overcast
9:35 PM 60.8 °F 59.9 °F 97% 29.73 in 4.0 mi ESE 9.2 mph 16.1 mph N/A   Overcast
9:55 PM 60.1 °F 59.4 °F 97% 29.72 in 3.0 mi ESE 10.4 mph 17.3 mph N/A   Overcast
10:15 PM 59.9 °F 59.2 °F 97% 29.72 in 2.5 mi ESE 10.4 mph - N/A   Overcast
10:35 PM 59.9 °F 59.2 °F 97% 29.72 in 2.5 mi ESE 10.4 mph 18.4 mph N/A   Overcast
10:55 PM 59.9 °F 59.4 °F 98% 29.72 in 2.5 mi ESE 10.4 mph 17.3 mph N/A   Overcast
11:15 PM 59.9 °F 59.4 °F 98% 29.72 in 3.0 mi ESE 12.7 mph 18.4 mph N/A   Overcast
11:35 PM 60.4 °F 59.7 °F 97% 29.73 in 4.0 mi SE 12.7 mph - N/A   Overcast
11:55 PM 60.3 °F 59.5 °F 97% 29.72 in 4.0 mi SE 15.0 mph 23.0 mph N/A   Overcast